Location: Unspecified
(43.4680°N, 87.1740°E)
Time: 05:39:59
(UTC+00:00)

Cosmos 2298 Rocket - Pass Details

Date: 17 April 2021
Orbit: 777 x 783 km, 74.0° (Epoch: 16 May)

Event Time Altitude Azimuth Distance (km) Brightness Sun altitude
Exits shadow 22:19:35 - 194° (SSW) 2,942 6.6 -11.7°
Reaches altitude 10° 22:21:10 10° 194° (SSW) 2,325 6.1 -11.5°
Maximum altitude 22:26:27 78° 108° (ESE) 800 4.2 -10.6°
Drops below altitude 10° 22:31:46 10° 23° (NNE) 2,338 7.3 -9.8°
Sets 22:34:09 0° 22° (NNE) 3,269 8.1 -9.4°
